Retour au catalogue

FRONTIERSAT

ActifRadio amateurSSO
NORAD 69015·PAYLOAD·🇨🇦 Canada

Lancé May 3, 2026 depuis Vandenberg Space Force Base

Loading…

Prochains Passages (prochaines 24 heures)

TLE

FraisSource: Space-Track

Époque: Sep 13, 2026, 15:58 UTC

1 69015U 26100AM  26256.66542355  .00006397  00000-0  27543-3 0  9996
2 69015  97.3870 153.0794 0009952  91.9150 268.3226 15.22903365 20283

Suivez FRONTIERSAT en temps réel avec AllMySat

Download on the App Store